Weather History for Flag Island, MN

Change the Weather History Date:

Monday, October 21, 2013

  Actual Average Record
Temperature  
Mean Temperature 32 °F -  
Max Temperature 37 °F 42 °F 51 °F (2003)
Min Temperature 28 °F 33 °F 24 °F (1997)
Degree Days  
Heating Degree Days 32    
Moisture  
Dew Point 30 °F    
Average Humidity 89    
Maximum Humidity 93    
Minimum Humidity 80    
Precipitation  
Precipitation 0.08 in - - ()
Sea Level Pressure  
Sea Level Pressure 29.82 in    
Wind  
Wind Speed 16 mph (NW)    
Max Wind Speed 22 mph    
Max Gust Speed 26 mph    
Visibility 9 miles    
Events Rain , Snow    
Averages and records for this station are not official NWS values.
T = Trace of Precipitation, MM = Missing Value Source: NWS Daily Summary

Daily Weather History Graph

Daily Weather History Graph

Search for Another Location

Airport:

Trip Planner

Search our weather history database for the weather conditions in past years. The results will help you decide how hot, cold, wet, or windy it might be!

Date:

Astronomy

Oct. 21, 2013 Rise Set
Actual Time 7:50 AM CDT 6:17 PM CDT
Civil Twilight 7:17 AM CDT 6:49 PM CDT
Nautical Twilight 6:40 AM CDT 7:26 PM CDT
Astronomical Twilight 6:03 AM CDT 8:03 PM CDT
Moon 7:57 PM CDT (10/21) 10:39 AM CDT (10/21)
Length of Visible Light 11h 31m
Length of Day
10h 26m
Waning Gibbous, 92% of the Moon is Illuminated
Oct 21
Waning Gibbous
Oct 26
Last Quarter
Nov 3
New
Nov 9
First Quarter
Nov 17
Full

Hourly Weather History & Observations

Time (CDT) Temp. Windchill Dew Point Humidity Pressure Visibility Wind Dir Wind Speed Gust Speed Precip Events Conditions
12:13 AM 30.2 °F 18.5 °F 24.8 °F 80% 29.80 in 10.0 mi West 17.3 mph - N/A   Overcast
12:33 AM 30.2 °F 18.5 °F 24.8 °F 80% 29.79 in 10.0 mi West 17.3 mph 25.3 mph N/A   Overcast
12:53 AM 30.2 °F 18.9 °F 24.8 °F 80% 29.79 in 10.0 mi West 16.1 mph 21.9 mph N/A   Overcast
1:14 AM 30.2 °F 18.5 °F 24.8 °F 80% 29.79 in 10.0 mi WNW 17.3 mph 25.3 mph N/A   Overcast
1:33 AM 30.2 °F 20.2 °F 24.8 °F 80% 29.79 in 10.0 mi West 12.7 mph 20.7 mph N/A   Overcast
1:53 AM 28.4 °F 17.0 °F 23.0 °F 80% 29.79 in 10.0 mi West 15.0 mph 21.9 mph N/A   Overcast
2:14 AM 28.4 °F 16.6 °F 23.0 °F 80% 29.78 in 10.0 mi West 16.1 mph 21.9 mph N/A   Overcast
2:33 AM 28.4 °F 16.2 °F 24.8 °F 86% 29.78 in 10.0 mi West 17.3 mph 25.3 mph N/A   Overcast
2:53 AM 28.4 °F 17.0 °F 24.8 °F 86% 29.78 in 10.0 mi West 15.0 mph 21.9 mph N/A   Overcast
3:14 AM 28.4 °F 16.2 °F 24.8 °F 86% 29.78 in 10.0 mi West 17.3 mph 26.5 mph N/A   Overcast
3:33 AM 28.4 °F 16.2 °F 24.8 °F 86% 29.77 in 10.0 mi West 17.3 mph 21.9 mph N/A   Overcast
3:53 AM 30.2 °F 17.8 °F 24.8 °F 80% 29.77 in 10.0 mi West 19.6 mph - N/A   Overcast
4:14 AM 28.4 °F 15.8 °F 24.8 °F 86% 29.77 in 10.0 mi West 18.4 mph - N/A   Overcast
4:33 AM 28.4 °F 16.2 °F 24.8 °F 86% 29.76 in 10.0 mi West 17.3 mph - N/A   Overcast
4:53 AM 28.4 °F 16.6 °F 24.8 °F 86% 29.76 in 10.0 mi West 16.1 mph 23.0 mph N/A   Overcast
5:14 AM 28.4 °F 16.2 °F 24.8 °F 86% 29.76 in 10.0 mi West 17.3 mph 23.0 mph N/A   Overcast
5:33 AM 28.4 °F 14.7 °F 26.6 °F 93% 29.76 in 10.0 mi WNW 21.9 mph 26.5 mph N/A   Overcast
5:53 AM 28.4 °F 15.8 °F 26.6 °F 93% 29.76 in 10.0 mi WNW 18.4 mph - N/A   Overcast
6:14 AM 30.2 °F 17.8 °F 26.6 °F 86% 29.76 in 10.0 mi WNW 19.6 mph - N/A   Overcast
6:33 AM 30.2 °F 18.5 °F 26.6 °F 86% 29.76 in 10.0 mi WNW 17.3 mph - N/A   Overcast
6:53 AM 30.2 °F 17.8 °F 26.6 °F 86% 29.76 in 7.0 mi WNW 19.6 mph 25.3 mph N/A   Overcast
7:14 AM 30.2 °F 17.8 °F 26.6 °F 86% 29.76 in 10.0 mi WNW 19.6 mph - N/A   Overcast
7:33 AM 30.2 °F 17.8 °F 28.4 °F 93% 29.76 in 7.0 mi WNW 19.6 mph - N/A   Overcast
7:53 AM 30.2 °F 18.1 °F 28.4 °F 93% 29.77 in 5.0 mi WNW 18.4 mph - N/A   Overcast
8:13 AM 30.2 °F 18.1 °F 28.4 °F 93% 29.77 in 5.0 mi WNW 18.4 mph - N/A   Overcast
8:33 AM 30.2 °F 17.1 °F 28.4 °F 93% 29.78 in 10.0 mi WNW 21.9 mph - N/A   Overcast
8:53 AM 30.2 °F 18.5 °F 28.4 °F 93% 29.78 in 5.0 mi WNW 17.3 mph - N/A   Overcast
9:13 AM 30.2 °F 18.5 °F 28.4 °F 93% 29.78 in 4.0 mi WNW 17.3 mph - N/A   Overcast
9:33 AM 30.2 °F 17.4 °F 28.4 °F 93% 29.79 in 2.5 mi WNW 20.7 mph - N/A Snow Light Snow
9:53 AM 30.2 °F 17.8 °F 28.4 °F 93% 29.79 in 2.5 mi WNW 19.6 mph 24.2 mph N/A Snow Light Snow
10:13 AM 32.0 °F 20.8 °F 28.4 °F 87% 29.79 in 4.0 mi NW 17.3 mph - N/A   Overcast
10:33 AM 33.8 °F 23.2 °F 30.2 °F 87% 29.79 in 10.0 mi NW 17.3 mph - N/A   Overcast
10:53 AM 33.8 °F 23.5 °F 30.2 °F 87% 29.79 in 5.0 mi NW 16.1 mph - N/A   Overcast
11:14 AM 33.8 °F 23.9 °F 30.2 °F 87% 29.80 in 4.0 mi NW 15.0 mph - N/A Snow Light Snow
11:33 AM 33.8 °F 23.2 °F 32.0 °F 93% 29.80 in 3.0 mi NW 17.3 mph - N/A   Overcast
11:53 AM 33.8 °F 23.2 °F 32.0 °F 93% 29.80 in 4.0 mi NW 17.3 mph - N/A Snow Light Snow
12:14 PM 35.6 °F 25.2 °F 33.8 °F 93% 29.80 in 10.0 mi NW 18.4 mph - N/A   Overcast
12:33 PM 35.6 °F 25.9 °F 33.8 °F 93% 29.81 in 10.0 mi NW 16.1 mph - N/A   Light Drizzle
12:53 PM 35.6 °F 25.2 °F 33.8 °F 93% 29.81 in 10.0 mi NNW 18.4 mph - N/A   Overcast
1:13 PM 37.4 °F 27.8 °F 33.8 °F 87% 29.81 in 10.0 mi NNW 17.3 mph - N/A   Overcast
1:33 PM 37.4 °F 26.9 °F 33.8 °F 87% 29.81 in 10.0 mi NNW 20.7 mph - N/A   Overcast
1:53 PM 37.4 °F 27.2 °F 33.8 °F 87% 29.81 in 10.0 mi NNW 19.6 mph - N/A   Overcast
2:13 PM 37.4 °F 28.5 °F 33.8 °F 87% 29.81 in 10.0 mi NW 15.0 mph - N/A   Overcast
2:33 PM 37.4 °F 27.8 °F 33.8 °F 87% 29.81 in 10.0 mi WNW 17.3 mph 24.2 mph N/A   Overcast
2:54 PM 37.4 °F 28.2 °F 33.8 °F 87% 29.81 in 10.0 mi NW 16.1 mph 21.9 mph N/A   Overcast
3:13 PM 37.4 °F 27.8 °F 33.8 °F 87% 29.82 in 10.0 mi NW 17.3 mph - N/A Rain Light Rain
3:33 PM 37.4 °F 28.2 °F 33.8 °F 87% 29.82 in 10.0 mi NW 16.1 mph - N/A   Overcast
3:54 PM 37.4 °F 27.5 °F 33.8 °F 87% 29.82 in 10.0 mi NW 18.4 mph 21.9 mph N/A   Overcast
4:13 PM 37.4 °F 28.2 °F 33.8 °F 87% 29.83 in 10.0 mi NW 16.1 mph 20.7 mph N/A   Overcast
4:33 PM 37.4 °F 27.8 °F 33.8 °F 87% 29.83 in 10.0 mi NW 17.3 mph 23.0 mph 0.01 in Rain Light Rain
4:53 PM 35.6 °F 28.6 °F 33.8 °F 93% 29.84 in 7.0 mi NNW 9.2 mph - 0.03 in Rain Rain
5:13 PM 37.4 °F 27.8 °F 33.8 °F 87% 29.85 in 10.0 mi NNW 17.3 mph - N/A   Overcast
5:33 PM 35.6 °F 25.9 °F 33.8 °F 93% 29.86 in 10.0 mi NW 16.1 mph - 0.01 in Rain Light Rain
5:53 PM 35.6 °F 27.1 °F 33.8 °F 93% 29.86 in 10.0 mi WNW 12.7 mph - 0.01 in Rain Light Rain
6:13 PM 35.6 °F 27.5 °F 33.8 °F 93% 29.87 in 7.0 mi WNW 11.5 mph 18.4 mph N/A Rain Rain
6:33 PM 35.6 °F 25.5 °F 33.8 °F 93% 29.88 in 7.0 mi NW 17.3 mph - 0.01 in Rain Rain
6:53 PM 35.6 °F 28.0 °F 33.8 °F 93% 29.88 in 10.0 mi NW 10.4 mph - 0.03 in Rain Light Rain
7:13 PM 37.4 °F 28.9 °F 33.8 °F 87% 29.89 in 10.0 mi NNW 13.8 mph - N/A Rain Light Rain
7:34 PM 35.6 °F 27.5 °F 33.8 °F 93% 29.89 in 7.0 mi NW 11.5 mph - 0.01 in Rain Light Rain
7:53 PM 35.6 °F 27.5 °F 33.8 °F 93% 29.89 in 10.0 mi WNW 11.5 mph - 0.01 in   Overcast
8:13 PM 35.6 °F 27.5 °F 33.8 °F 93% 29.89 in 10.0 mi WNW 11.5 mph - N/A   Overcast
8:34 PM 35.6 °F 27.5 °F 33.8 °F 93% 29.90 in 10.0 mi North 11.5 mph - N/A   Overcast
8:53 PM 35.6 °F 28.0 °F 33.8 °F 93% 29.90 in 10.0 mi North 10.4 mph - N/A   Overcast
9:13 PM 35.6 °F 28.6 °F 33.8 °F 93% 29.90 in 10.0 mi NNW 9.2 mph - N/A Rain Light Rain
9:34 PM 35.6 °F 28.0 °F 33.8 °F 93% 29.91 in 10.0 mi NNW 10.4 mph - N/A   Overcast
9:53 PM 35.6 °F 28.6 °F 33.8 °F 93% 29.91 in 10.0 mi NNW 9.2 mph - N/A   Overcast
10:13 PM 35.6 °F 29.2 °F 33.8 °F 93% 29.91 in 10.0 mi North 8.1 mph - N/A   Overcast
10:34 PM 35.6 °F 29.9 °F 33.8 °F 93% 29.91 in 7.0 mi NNE 6.9 mph - N/A Rain Light Rain
10:53 PM 35.6 °F - 32.0 °F 87% 29.91 in 10.0 mi Calm Calm - N/A   Overcast
11:13 PM 37.4 °F 29.8 °F 33.8 °F 87% 29.92 in 10.0 mi North 11.5 mph - N/A   Overcast
11:34 PM 37.4 °F 29.8 °F 33.8 °F 87% 29.92 in 10.0 mi NNE 11.5 mph - N/A   Overcast
11:53 PM 35.6 °F 32.8 °F 32.0 °F 87% 29.92 in 10.0 mi East 3.5 mph - N/A   Overcast